Weather History for Creston, IA

Change the Weather History Date:

Saturday, April 26, 2014

  Actual Average Record
Temperature  
Mean Temperature 62 °F -  
Max Temperature 75 °F 69 °F 91 °F (1987)
Min Temperature 50 °F 44 °F 28 °F (1950)
Degree Days  
Heating Degree Days 2    
Growing Degree Days 12 (Base 50)    
Moisture  
Dew Point 46 °F    
Average Humidity 54    
Maximum Humidity 76    
Minimum Humidity 38    
Precipitation  
Precipitation 0.00 in - - ()
Sea Level Pressure  
Sea Level Pressure 29.73 in    
Wind  
Wind Speed 13 mph (SE)    
Max Wind Speed 25 mph    
Max Gust Speed 31 mph    
Visibility 10 miles    
Events      
Averages and records for this station are not official NWS values.
T = Trace of Precipitation, MM = Missing Value Source: NWS Daily Summary

Daily Weather History Graph

Daily Weather History Graph

Search for Another Location

Airport:

Trip Planner

Search our weather history database for the weather conditions in past years. The results will help you decide how hot, cold, wet, or windy it might be!

Date:

Astronomy

Apr. 26, 2014 Rise Set
Actual Time 6:22 AM CDT 8:09 PM CDT
Civil Twilight 5:52 AM CDT 8:38 PM CDT
Nautical Twilight 5:17 AM CDT 9:14 PM CDT
Astronomical Twilight 4:38 AM CDT 9:52 PM CDT
Moon 4:48 AM CDT (4/26) 5:37 PM CDT (4/26)
Length of Visible Light 14h 45m
Length of Day
13h 46m
Waning Crescent, 8% of the Moon is Illuminated
Apr 26
Waning Crescent
Apr 29
New
May 6
First Quarter
May 14
Full
May 21
Last Quarter

Hourly Weather History & Observations

Time (CDT) Temp. Dew Point Humidity Pressure Visibility Wind Dir Wind Speed Gust Speed Precip Events Conditions
12:15 AM 57.2 °F 44.6 °F 63% 29.81 in 10.0 mi South 6.9 mph - N/A   Clear
12:35 AM 57.2 °F 44.6 °F 63% 29.80 in 10.0 mi South 6.9 mph - N/A   Clear
12:55 AM 55.4 °F 44.6 °F 67% 29.80 in 10.0 mi South 11.5 mph - N/A   Clear
1:15 AM 55.4 °F 44.6 °F 67% 29.80 in 10.0 mi South 12.7 mph - N/A   Clear
1:35 AM 55.4 °F 44.6 °F 67% 29.80 in 10.0 mi South 13.8 mph - N/A   Clear
1:55 AM 55.4 °F 44.6 °F 67% 29.79 in 10.0 mi South 12.7 mph - N/A   Clear
2:15 AM 55.4 °F 44.6 °F 67% 29.79 in 10.0 mi South 11.5 mph - N/A   Clear
2:35 AM 53.6 °F 44.6 °F 72% 29.79 in 10.0 mi SSW 10.4 mph - N/A   Clear
2:55 AM 53.6 °F 44.6 °F 72% 29.78 in 10.0 mi SSW 10.4 mph - N/A   Clear
3:15 AM 51.8 °F 42.8 °F 71% 29.78 in 10.0 mi SSW 9.2 mph - N/A   Clear
3:35 AM 53.6 °F 42.8 °F 67% 29.78 in 10.0 mi South 9.2 mph - N/A   Clear
3:55 AM 51.8 °F 42.8 °F 71% 29.78 in 10.0 mi South 8.1 mph - N/A   Clear
4:15 AM 53.6 °F 42.8 °F 67% 29.78 in 10.0 mi South 8.1 mph - N/A   Clear
4:35 AM 53.6 °F 42.8 °F 67% 29.78 in 10.0 mi South 10.4 mph - N/A   Clear
4:55 AM 51.8 °F 42.8 °F 71% 29.79 in 10.0 mi South 10.4 mph - N/A   Clear
5:15 AM 50.0 °F 42.8 °F 76% 29.79 in 10.0 mi South 9.2 mph - N/A   Clear
5:35 AM 51.8 °F 42.8 °F 71% 29.79 in 10.0 mi South 8.1 mph - N/A   Clear
5:55 AM 53.6 °F 42.8 °F 67% 29.80 in 10.0 mi South 6.9 mph - N/A   Clear
6:15 AM 53.6 °F 42.8 °F 67% 29.80 in 10.0 mi South 8.1 mph - N/A   Clear
6:55 AM 50.0 °F 42.8 °F 76% 29.81 in 10.0 mi ENE 6.9 mph - N/A   Clear
7:10 AM 50.0 °F 42.8 °F 76% 29.81 in 10.0 mi East 8.1 mph - N/A   Clear
7:35 AM 53.6 °F 44.6 °F 72% 29.81 in 10.0 mi East 6.9 mph - N/A   Clear
7:55 AM 57.2 °F 46.4 °F 67% 29.81 in 10.0 mi ESE 6.9 mph - N/A   Clear
8:15 AM 59.0 °F 44.6 °F 59% 29.81 in 10.0 mi ESE 8.1 mph - N/A   Clear
8:35 AM 60.8 °F 46.4 °F 59% 29.81 in 10.0 mi ESE 10.4 mph - N/A   Clear
8:55 AM 62.6 °F 44.6 °F 52% 29.80 in 10.0 mi ESE 12.7 mph - N/A   Clear
9:15 AM 64.4 °F 44.6 °F 49% 29.80 in 10.0 mi SE 10.4 mph - N/A   Clear
9:35 AM 64.4 °F 44.6 °F 49% 29.80 in 10.0 mi SE 13.8 mph - N/A   Clear
9:55 AM 66.2 °F 44.6 °F 46% 29.79 in 10.0 mi ESE 13.8 mph - N/A   Clear
10:15 AM 66.2 °F 44.6 °F 46% 29.79 in 10.0 mi SE 12.7 mph - N/A   Clear
10:35 AM 68.0 °F 44.6 °F 43% 29.79 in 10.0 mi ESE 15.0 mph - N/A   Clear
10:55 AM 68.0 °F 44.6 °F 43% 29.79 in 10.0 mi SE 13.8 mph 20.7 mph N/A   Clear
11:15 AM 69.8 °F 44.6 °F 40% 29.79 in 10.0 mi ESE 11.5 mph 20.7 mph N/A   Clear
11:35 AM 69.8 °F 44.6 °F 40% 29.78 in 10.0 mi SE 12.7 mph 21.9 mph N/A   Clear
11:55 AM 71.6 °F 46.4 °F 41% 29.77 in 10.0 mi SE 16.1 mph 23.0 mph N/A   Clear
12:15 PM 73.4 °F 46.4 °F 38% 29.76 in 10.0 mi ESE 15.0 mph 23.0 mph N/A   Clear
12:35 PM 73.4 °F 46.4 °F 38% 29.75 in 10.0 mi SE 17.3 mph 24.2 mph N/A   Clear
12:55 PM 73.4 °F 48.2 °F 41% 29.74 in 10.0 mi SE 16.1 mph 24.2 mph N/A   Partly Cloudy
1:15 PM 75.2 °F 48.2 °F 38% 29.73 in 10.0 mi ESE 19.6 mph - N/A   Scattered Clouds
1:35 PM 75.2 °F 48.2 °F 38% 29.73 in 10.0 mi SE 19.6 mph - N/A   Mostly Cloudy
1:55 PM 75.2 °F 48.2 °F 38% 29.72 in 10.0 mi SE 20.7 mph 27.6 mph N/A   Mostly Cloudy
2:15 PM 75.2 °F 48.2 °F 38% 29.72 in 10.0 mi SSE 24.2 mph 29.9 mph N/A   Mostly Cloudy
2:35 PM 73.4 °F 48.2 °F 41% 29.72 in 10.0 mi SE 20.7 mph 29.9 mph N/A   Mostly Cloudy
2:55 PM 73.4 °F 48.2 °F 41% 29.71 in 10.0 mi SE 19.6 mph 26.5 mph N/A   Overcast
3:15 PM 75.2 °F 48.2 °F 38% 29.70 in 10.0 mi SE 23.0 mph - N/A   Overcast
3:55 PM 75.2 °F 50.0 °F 41% 29.68 in 10.0 mi SSE 20.7 mph 27.6 mph N/A   Overcast
4:15 PM 75.2 °F 50.0 °F 41% 29.68 in 10.0 mi SSE 20.7 mph 28.8 mph N/A   Overcast
4:35 PM 75.2 °F 50.0 °F 41% 29.66 in 10.0 mi SSE 20.7 mph - N/A   Overcast
4:55 PM 75.2 °F 50.0 °F 41% 29.66 in 10.0 mi SE 21.9 mph 28.8 mph N/A   Overcast
5:15 PM 75.2 °F 50.0 °F 41% 29.66 in 10.0 mi SE 25.3 mph 31.1 mph N/A   Overcast
5:35 PM 75.2 °F 50.0 °F 41% 29.65 in 10.0 mi SE 23.0 mph 29.9 mph N/A   Mostly Cloudy
5:55 PM 73.4 °F 50.0 °F 44% 29.64 in 10.0 mi SE 23.0 mph 31.1 mph N/A   Clear
6:15 PM 73.4 °F 50.0 °F 44% 29.64 in 10.0 mi SE 19.6 mph 26.5 mph N/A   Scattered Clouds
6:30 PM 73.4 °F 50.0 °F 44% 29.64 in 10.0 mi SE 18.4 mph 27.6 mph N/A   Mostly Cloudy
6:55 PM 73.4 °F 50.0 °F 44% 29.64 in 10.0 mi SE 23.0 mph 29.9 mph N/A   Overcast
7:15 PM 71.6 °F 50.0 °F 46% 29.64 in 10.0 mi SE 18.4 mph - N/A   Overcast
7:35 PM 69.8 °F 48.2 °F 46% 29.64 in 10.0 mi SE 21.9 mph - N/A   Scattered Clouds
7:55 PM 68.0 °F 48.2 °F 49% 29.64 in 10.0 mi SE 19.6 mph 26.5 mph N/A   Partly Cloudy
8:15 PM 68.0 °F 48.2 °F 49% 29.64 in 10.0 mi SE 16.1 mph 26.5 mph N/A   Clear
8:35 PM 66.2 °F 48.2 °F 52% 29.65 in 10.0 mi ESE 16.1 mph - N/A   Clear
8:55 PM 66.2 °F 48.2 °F 52% 29.65 in 10.0 mi ESE 13.8 mph - N/A   Clear
9:15 PM 66.2 °F 48.2 °F 52% 29.65 in 10.0 mi ESE 17.3 mph - N/A   Clear
9:35 PM 66.2 °F 48.2 °F 52% 29.65 in 10.0 mi ESE 19.6 mph - N/A   Clear
9:55 PM 64.4 °F 48.2 °F 56% 29.65 in 10.0 mi ESE 17.3 mph 26.5 mph N/A   Clear
10:15 PM 64.4 °F 48.2 °F 56% 29.65 in 10.0 mi ESE 19.6 mph - N/A   Clear
10:35 PM 64.4 °F 48.2 °F 56% 29.65 in 10.0 mi ESE 16.1 mph 24.2 mph N/A   Clear
10:55 PM 62.6 °F 48.2 °F 59% 29.65 in 10.0 mi ESE 17.3 mph - N/A   Clear
11:15 PM 62.6 °F 48.2 °F 59% 29.64 in 10.0 mi ESE 17.3 mph 23.0 mph N/A   Clear
11:35 PM 62.6 °F 48.2 °F 59% 29.64 in 10.0 mi ESE 16.1 mph - N/A   Partly Cloudy
11:55 PM 62.6 °F 48.2 °F 59% 29.64 in 10.0 mi ESE 17.3 mph - N/A   Overcast